Location: Staunton
(38.1490°N, 79.0720°W)
Time: 14:36:07
(UTC-04:00)

ISS - Pass Details

Date: 16 July 2019
Orbit: 409 x 418 km, 51.6° (Epoch: 20 July)

Event Time Altitude Azimuth Distance (km) Brightness Sun altitude
Rises 23:14:46 0° 257° (WSW) 2,344 0.3 -23.5°
Reaches altitude 10° 23:17:04 10° 270° (W) 1,482 -0.6 -23.7°
Maximum altitude 23:19:57 27° 330° (NNW) 841 -1.5 -24.0°
Drops below altitude 10° 23:22:50 10° 30° (NNE) 1,483 -0.6 -24.3°
Sets 23:25:08 0° 43° (NE) 2,346 0.2 -24.5°
